When you browse on this site, cookies collect data to enhance your experience and personalize the content and advertising you see.
Visit our Privacy Policy to learn more. By continuing to use the site, you agree to this use of cookies and data.
  • In Germany
  • List of Countries
  • For 7 days
  • Water Temperature
  • Satellite Maps
  • Weather Map
  • Weather Widgets
  • user-avatar
    Login

    Hourly Weather Mansa

    Today, 16 January, Wednesday

    Time Temperature Precipitation Wind Pressure Humidity
    00:00 +19°C° 0 mm 1 mps 660 mmHg 97%
    01:00 +19°C° 0 mm 1 mps 660 mmHg 97%
    02:00 +19°C° 0 mm 1 mps 660 mmHg 97%
    03:00 +19°C° 0 mm 1 mps 660 mmHg 97%
    04:00 +19°C° 0 mm 1 mps 660 mmHg 97%
    05:00 +19°C° 0 mm 1 mps 660 mmHg 97%
    06:00 +19°C° 0 mm 1 mps 660 mmHg 96%
    07:00 +20°C° 0 mm 1 mps 661 mmHg 95%
    08:00 +21°C° 0 mm 1 mps 661 mmHg 94%
    09:00 +22°C° 0.2 mm 1 mps 661 mmHg 88%
    10:00 +24°C° 0.2 mm 1 mps 661 mmHg 82%
    11:00 +25°C° 0.2 mm 2 mps 662 mmHg 76%
    12:00 +26°C° 0.6 mm 2 mps 661 mmHg 76%
    13:00 +26°C° 0.6 mm 2 mps 660 mmHg 77%
    14:00 +26°C° 0 mm 1 mps 660 mmHg 75%
    15:00 +26°C° 0.1 mm 1 mps 660 mmHg 75%
    16:00 +26°C° 0.1 mm 1 mps 659 mmHg 75%
    17:00 +26°C° 0.1 mm 1 mps 659 mmHg 76%
    18:00 +24°C° 0 mm 1 mps 659 mmHg 82%
    19:00 +22°C° 0 mm 1 mps 659 mmHg 88%
    20:00 +21°C° 0 mm 1 mps 659 mmHg 94%
    21:00 +20°C° 0 mm 1 mps 659 mmHg 94%
    22:00 +20°C° 0 mm 1 mps 659 mmHg 94%
    23:00 +19°C° 0 mm 1 mps 659 mmHg 94%

    Tomorrow, 17 January, Thursday

    Time Temperature Precipitation Wind Pressure Humidity
    00:00 +20°C° 0 mm 1 mps 659 mmHg 94%
    01:00 +20°C° 0 mm 1 mps 659 mmHg 93%
    02:00 +20°C° 0 mm 1 mps 659 mmHg 93%
    03:00 +19°C° 0 mm 1 mps 659 mmHg 94%
    04:00 +19°C° 0 mm 1 mps 659 mmHg 95%
    05:00 +19°C° 0 mm 1 mps 659 mmHg 96%
    06:00 +20°C° 0 mm 1 mps 659 mmHg 94%
    07:00 +21°C° 0 mm 1 mps 660 mmHg 92%
    08:00 +21°C° 0 mm 1 mps 660 mmHg 90%
    09:00 +23°C° 0.7 mm 2 mps 660 mmHg 88%
    10:00 +24°C° 0.7 mm 2 mps 660 mmHg 85%
    11:00 +25°C° 0.7 mm 2 mps 660 mmHg 82%
    12:00 +26°C° 0.6 mm 2 mps 660 mmHg 79%
    13:00 +26°C° 0.6 mm 2 mps 660 mmHg 76%
    14:00 +27°C° 0.6 mm 2 mps 659 mmHg 73%
    15:00 +26°C° 0.6 mm 2 mps 659 mmHg 78%
    16:00 +26°C° 0.6 mm 2 mps 658 mmHg 82%
    17:00 +25°C° 0.6 mm 1 mps 658 mmHg 86%
    18:00 +24°C° 0.8 mm 1 mps 658 mmHg 89%
    19:00 +23°C° 0.8 mm 1 mps 658 mmHg 92%
    20:00 +21°C° 0.8 mm 1 mps 658 mmHg 94%
    21:00 +21°C° 0.6 mm 1 mps 658 mmHg 95%
    22:00 +21°C° 0.6 mm 1 mps 659 mmHg 95%
    23:00 +21°C° 0.6 mm 1 mps 659 mmHg 96%

    Day after tomorrow, 18 January, Friday

    Time Temperature Precipitation Wind Pressure Humidity
    00:00 +20°C° 0.7 mm 1 mps 659 mmHg 96%
    01:00 +19°C° 0.7 mm 2 mps 658 mmHg 96%
    02:00 +19°C° 0.7 mm 2 mps 658 mmHg 97%
    03:00 +19°C° 0.5 mm 2 mps 658 mmHg 97%
    04:00 +19°C° 0.5 mm 2 mps 658 mmHg 97%
    05:00 +19°C° 0.5 mm 2 mps 658 mmHg 97%
    06:00 +19°C° 0.3 mm 2 mps 658 mmHg 96%
    07:00 +19°C° 0.3 mm 3 mps 659 mmHg 96%
    08:00 +20°C° 0.3 mm 3 mps 659 mmHg 95%
    09:00 +20°C° 0.5 mm 3 mps 660 mmHg 94%
    10:00 +21°C° 0.5 mm 3 mps 660 mmHg 92%
    11:00 +21°C° 0.5 mm 4 mps 660 mmHg 90%
    12:00 +21°C° 0.4 mm 4 mps 660 mmHg 88%
    13:00 +22°C° 0.4 mm 4 mps 659 mmHg 87%
    14:00 +22°C° 0.4 mm 4 mps 659 mmHg 85%
    15:00 +22°C° 0.2 mm 3 mps 658 mmHg 87%
    16:00 +21°C° 0.2 mm 3 mps 658 mmHg 89%
    17:00 +21°C° 0.2 mm 3 mps 657 mmHg 91%
    18:00 +20°C° 0.1 mm 2 mps 658 mmHg 93%
    19:00 +20°C° 0.1 mm 2 mps 658 mmHg 95%
    20:00 +20°C° 0.1 mm 1 mps 658 mmHg 98%
    21:00 +20°C° 0.1 mm 1 mps 659 mmHg 98%
    22:00 +20°C° 0.1 mm 1 mps 659 mmHg 98%
    23:00 +20°C° 0.1 mm 1 mps 659 mmHg 98%

    19 January, Saturday

    Time Temperature Precipitation Wind Pressure Humidity
    00:00 +19°C° 0.4 mm 1 mps 659 mmHg 98%
    01:00 +19°C° 0.4 mm 1 mps 658 mmHg 97%
    02:00 +19°C° 0.4 mm 1 mps 658 mmHg 97%
    03:00 +19°C° 0.4 mm 1 mps 658 mmHg 97%
    04:00 +18°C° 0.4 mm 2 mps 658 mmHg 97%
    05:00 +18°C° 0.4 mm 2 mps 658 mmHg 97%
    06:00 +18°C° 0.1 mm 2 mps 659 mmHg 95%
    07:00 +19°C° 0.1 mm 3 mps 659 mmHg 94%
    08:00 +19°C° 0.1 mm 3 mps 660 mmHg 92%
    09:00 +20°C° 0.3 mm 3 mps 660 mmHg 90%
    10:00 +20°C° 0.3 mm 3 mps 660 mmHg 89%
    11:00 +21°C° 0.3 mm 3 mps 660 mmHg 87%
    12:00 +21°C° 0.2 mm 3 mps 659 mmHg 85%
    13:00 +22°C° 0.2 mm 3 mps 659 mmHg 84%
    14:00 +22°C° 0.2 mm 3 mps 658 mmHg 82%
    15:00 +22°C° 0.3 mm 3 mps 658 mmHg 84%
    16:00 +22°C° 0.3 mm 3 mps 658 mmHg 86%
    17:00 +22°C° 0.3 mm 3 mps 658 mmHg 87%
    18:00 +21°C° 0.3 mm 2 mps 658 mmHg 89%
    19:00 +20°C° 0.3 mm 2 mps 658 mmHg 92%
    20:00 +20°C° 0.3 mm 1 mps 659 mmHg 94%
    21:00 +20°C° 0.5 mm 1 mps 659 mmHg 94%
    22:00 +20°C° 0.5 mm 1 mps 659 mmHg 95%
    23:00 +20°C° 0.5 mm 1 mps 659 mmHg 95%

    20 January, Sunday

    Time Temperature Precipitation Wind Pressure Humidity
    00:00 +19°C° 0.1 mm 1 mps 659 mmHg 96%
    01:00 +19°C° 0.1 mm 1 mps 658 mmHg 96%
    02:00 +19°C° 0.1 mm 1 mps 658 mmHg 97%
    03:00 +18°C° 0 mm 1 mps 658 mmHg 97%
    04:00 +18°C° 0 mm 1 mps 658 mmHg 97%
    05:00 +18°C° 0 mm 1 mps 658 mmHg 97%
    06:00 +18°C° 0 mm 2 mps 659 mmHg 95%
    07:00 +19°C° 0 mm 2 mps 660 mmHg 93%
    08:00 +19°C° 0 mm 2 mps 661 mmHg 91%
    09:00 +21°C° 0.2 mm 3 mps 661 mmHg 86%
    10:00 +24°C° 0.2 mm 3 mps 661 mmHg 80%
    11:00 +25°C° 0.2 mm 3 mps 661 mmHg 75%
    12:00 +26°C° 0.7 mm 3 mps 660 mmHg 76%
    13:00 +26°C° 0.7 mm 3 mps 659 mmHg 77%
    14:00 +26°C° 0.7 mm 3 mps 659 mmHg 78%
    15:00 +25°C° 0.6 mm 3 mps 659 mmHg 80%
    16:00 +25°C° 0.6 mm 3 mps 659 mmHg 83%
    17:00 +24°C° 0.6 mm 2 mps 658 mmHg 85%
    18:00 +23°C° 0.6 mm 2 mps 659 mmHg 88%
    19:00 +21°C° 0.6 mm 2 mps 659 mmHg 91%
    20:00 +20°C° 0.6 mm 1 mps 659 mmHg 94%
    21:00 +20°C° 0 mm 1 mps 659 mmHg 95%
    22:00 +20°C° 0 mm 1 mps 660 mmHg 95%
    23:00 +20°C° 0 mm 1 mps 660 mmHg 95%

    21 January, Monday

    Time Temperature Precipitation Wind Pressure Humidity
    00:00 +20°C° 0.4 mm 1 mps 660 mmHg 95%
    01:00 +20°C° 0.4 mm 1 mps 659 mmHg 96%
    02:00 +20°C° 0.4 mm 1 mps 659 mmHg 96%
    03:00 +20°C° 0.4 mm 1 mps 659 mmHg 97%
    04:00 +19°C° 0.4 mm 1 mps 659 mmHg 97%
    05:00 +19°C° 0.4 mm 1 mps 659 mmHg 97%
    06:00 +20°C° 0.2 mm 1 mps 660 mmHg 97%
    07:00 +20°C° 0.2 mm 1 mps 660 mmHg 97%
    08:00 +19°C° 0.2 mm 2 mps 660 mmHg 97%
    09:00 +20°C° 0.3 mm 2 mps 661 mmHg 93%
    10:00 +23°C° 0.3 mm 2 mps 661 mmHg 89%
    11:00 +24°C° 0.3 mm 3 mps 661 mmHg 85%
    12:00 +24°C° 0.4 mm 3 mps 660 mmHg 81%
    13:00 +25°C° 0.4 mm 3 mps 660 mmHg 78%
    14:00 +25°C° 0.4 mm 3 mps 659 mmHg 74%
    15:00 +25°C° 0.1 mm 2 mps 659 mmHg 78%
    16:00 +24°C° 0.1 mm 2 mps 658 mmHg 82%
    17:00 +23°C° 0.1 mm 2 mps 658 mmHg 86%
    18:00 +22°C° 0.2 mm 1 mps 658 mmHg 88%
    19:00 +21°C° 0.2 mm 1 mps 658 mmHg 91%
    20:00 +19°C° 0.2 mm 0 mps 659 mmHg 93%
    21:00 +18°C° 0.3 mm 0 mps 659 mmHg 94%
    22:00 +20°C° 0.3 mm 1 mps 659 mmHg 95%
    23:00 +20°C° 0.3 mm 1 mps 659 mmHg 96%
    Show more